Regional Weather Roundup
Issued by NWS Midland/Odessa, TX

Skip options and go directly to product.
Home | Oldest Version | Previous Version | Current Version | All | Text Only | Save Text | Print | Product List | Glossary Off

Skip product version selection by date and time.   

276
ASUS44 KMAF 252210
RWRMAF
MIDLAND AREA WEATHER ROUNDUP
NATIONAL WEATHER SERVICE MIDLAND TX
500 PM CDT WED MAY 25 2016

...IN SOUTHWEST TEXAS AND SOUTHEAST NEW MEXICO...

CITY           SKY/WX    TMP DP  RH WIND       PRES   REMARKS
ALPINE         MOSUNNY   90  32  12 SW17G26   30.09F
ANDREWS        FAIR      94  27   9 SW17      29.96F
ARTESIA        SUNNY     91  25   9 SW20G35   29.94F
BIG SPRING     SUNNY     95  40  14 SW10      29.94F
CARLSBAD       SUNNY     96  20   6 W18G31    29.91F
DRYDEN           N/A     88  71  57 SE15      29.93F
FORT STOCKTON  CLOUDY    93  49  22 S12       29.92F
GUAD PASS      NOT AVBL
HOBBS          SUNNY     93  19   7 SW21G26   29.96F
MARFA          CLOUDY    91  35  13 S20G36    30.07F
MIDLAND AIRPK  SUNNY     99  25   7 SW12G23   29.93F
MIDLAND INTL   SUNNY     99  27   8 MISG      29.92F
ODESSA         SUNNY     97  25   7 SW22      29.94F
PECOS          MOSUNNY  100  28   8 SW9G17    29.88F
PRESIDIO       FAIR      97  37  12 SW13G20   29.92F
SEMINOLE       SUNNY     94  29   9 SW13G25   29.96F
SNYDER           N/A     94  38  14 W9        29.91F
WINK           SUNNY     98  29   8 MISG      29.89F
$$
...OTHER STATIONS IN TEXAS...

CITY           SKY/WX    TMP DP  RH WIND       PRES   REMARKS
ABILENE        SUNNY     92  71  50 S13       29.90F
AMARILLO       SUNNY     89  30  12 SW20G25   29.92F
AUSTIN         CLOUDY    86  77  74 SE13      29.93F
BROWNSVILLE    MOSUNNY   88  77  69 SE17      29.92S HX 100
CORPUS CHRISTI PTSUNNY   87  77  72 SE20      29.93F
DALLAS FTW     CLOUDY    84  73  69 S16       29.91F
DEL RIO        CLOUDY    86  76  71 SE13      29.90F
EL PASO        MOSUNNY   91  27  10 W20G26    29.97F
HOUSTON INT    PTSUNNY   87  72  60 S13       30.00F
LUBBOCK        SUNNY     93  25   8 SW17G24   29.92F
SAN ANGELO     MOSUNNY   92  68  45 S15       29.91F
SAN ANTONIO    CLOUDY    87  75  67 SE12      29.94F
WACO           CLOUDY    88  74  63 S14       29.93F
WICHITA FALLS  NOT AVBL
$$
...OTHER LOCATIONS IN NEW MEXICO...

CITY           SKY/WX    TMP DP  RH WIND       PRES   REMARKS
ALAMAGORDO     SUNNY     86  23  10 SW24G33   30.01F
ALBUQUERQUE    MOSUNNY   79  18  10 SW8G17    30.02F
CANNON AFB     SUNNY     88  20   8 SW10G28   29.97F
CLOVIS         SUNNY     86  28  12 SW18G26   29.98F
HOLLOMAN AFB   SUNNY     86  22   9 SW17G23   29.98F
ROSWELL        SUNNY     94  18   6 SW21G31   29.92F
RUIDOSO          N/A     73  16  11 SW28G40   30.17S
SANTA FE       SUNNY     75  10   8 W15G23    30.08F
TRUTH OR CONSE SUNNY     85  14   7 SW16G30   29.98F
TUCUMCARI      SUNNY     90  14   6 W16G30    29.90F
$$

USA.gov is the U.S. government's official web portal to all federal, state and local government web resources and services.